When you browse on this site, cookies collect data to enhance your experience and personalize the content and advertising you see.
Visit our Privacy Policy to learn more. By continuing to use the site, you agree to this use of cookies and data.
  • en Suisse
  • Liste des pays
  • À 7 jours
  • Température de l'eau
  • Carte satellitaire
  • Carte météo
  • Widgets météo
  • user-avatar
    Se connecter

    Météo par heure à Canberra

    Ce jour, 23 Mai, Jeudi

    Heure Température Précipitation Vent Pression Humidité
    00:00 +11°C° 0 mm 1 m/s 717 mmHg 95%
    01:00 +11°C° 0 mm 1 m/s 717 mmHg 96%
    02:00 +11°C° 0 mm 1 m/s 717 mmHg 96%
    03:00 +11°C° 0 mm 1 m/s 717 mmHg 95%
    04:00 +12°C° 0 mm 1 m/s 717 mmHg 95%
    05:00 +11°C° 0 mm 1 m/s 717 mmHg 95%
    06:00 +11°C° 0 mm 1 m/s 717 mmHg 95%
    07:00 +10°C° 0 mm 0 m/s 717 mmHg 95%
    08:00 +11°C° 0 mm 0 m/s 717 mmHg 88%
    09:00 +13°C° 0 mm 0 m/s 717 mmHg 81%
    10:00 +15°C° 0 mm 0 m/s 717 mmHg 74%
    11:00 +18°C° 0 mm 1 m/s 717 mmHg 65%
    12:00 +19°C° 0 mm 1 m/s 717 mmHg 57%
    13:00 +19°C° 0 mm 2 m/s 716 mmHg 48%
    14:00 +19°C° 0 mm 2 m/s 716 mmHg 49%
    15:00 +19°C° 0 mm 2 m/s 716 mmHg 51%
    16:00 +18°C° 0 mm 2 m/s 715 mmHg 52%
    17:00 +16°C° 0 mm 1 m/s 715 mmHg 60%
    18:00 +14°C° 0 mm 1 m/s 715 mmHg 68%
    19:00 +11°C° 0 mm 1 m/s 715 mmHg 76%
    20:00 +11°C° 0 mm 1 m/s 715 mmHg 78%
    21:00 +10°C° 0 mm 1 m/s 715 mmHg 80%
    22:00 +9°C° 0 mm 1 m/s 715 mmHg 82%
    23:00 +9°C° 0 mm 1 m/s 715 mmHg 81%

    Demain, 24 Mai, Vendredi

    Heure Température Précipitation Vent Pression Humidité
    00:00 +8°C° 0 mm 1 m/s 715 mmHg 79%
    01:00 +8°C° 0 mm 1 m/s 714 mmHg 78%
    02:00 +8°C° 0 mm 1 m/s 714 mmHg 76%
    03:00 +7°C° 0 mm 1 m/s 714 mmHg 73%
    04:00 +7°C° 0 mm 1 m/s 713 mmHg 71%
    05:00 +7°C° 0 mm 1 m/s 713 mmHg 70%
    06:00 +6°C° 0 mm 1 m/s 713 mmHg 70%
    07:00 +6°C° 0 mm 1 m/s 713 mmHg 69%
    08:00 +9°C° 0 mm 1 m/s 713 mmHg 60%
    09:00 +12°C° 0 mm 1 m/s 714 mmHg 52%
    10:00 +15°C° 0 mm 2 m/s 714 mmHg 43%
    11:00 +16°C° 0 mm 2 m/s 713 mmHg 44%
    12:00 +18°C° 0 mm 3 m/s 713 mmHg 44%
    13:00 +19°C° 0 mm 4 m/s 712 mmHg 45%
    14:00 +18°C° 0 mm 4 m/s 712 mmHg 49%
    15:00 +18°C° 0 mm 3 m/s 712 mmHg 53%
    16:00 +17°C° 0 mm 3 m/s 711 mmHg 57%
    17:00 +15°C° 0 mm 2 m/s 711 mmHg 64%
    18:00 +13°C° 0 mm 2 m/s 712 mmHg 71%
    19:00 +12°C° 0 mm 1 m/s 712 mmHg 78%
    20:00 +11°C° 0 mm 1 m/s 712 mmHg 78%
    21:00 +11°C° 0 mm 1 m/s 712 mmHg 78%
    22:00 +11°C° 0 mm 1 m/s 711 mmHg 77%
    23:00 +11°C° 0 mm 1 m/s 711 mmHg 80%

    Après-demain, 25 Mai, Samedi

    Heure Température Précipitation Vent Pression Humidité
    00:00 +11°C° 0 mm 1 m/s 711 mmHg 82%
    01:00 +10°C° 0 mm 1 m/s 711 mmHg 85%
    02:00 +10°C° 0 mm 1 m/s 710 mmHg 86%
    03:00 +9°C° 0 mm 1 m/s 710 mmHg 88%
    04:00 +9°C° 0 mm 1 m/s 710 mmHg 89%
    05:00 +9°C° 0 mm 1 m/s 710 mmHg 90%
    06:00 +9°C° 0 mm 1 m/s 710 mmHg 90%
    07:00 +8°C° 0 mm 1 m/s 709 mmHg 91%
    08:00 +10°C° 0 mm 2 m/s 710 mmHg 80%
    09:00 +13°C° 0 mm 3 m/s 710 mmHg 69%
    10:00 +15°C° 0 mm 4 m/s 710 mmHg 57%
    11:00 +16°C° 0 mm 5 m/s 710 mmHg 53%
    12:00 +19°C° 0 mm 6 m/s 709 mmHg 49%
    13:00 +20°C° 0 mm 6 m/s 709 mmHg 44%
    14:00 +19°C° 0 mm 6 m/s 709 mmHg 47%
    15:00 +19°C° 0 mm 5 m/s 708 mmHg 49%
    16:00 +18°C° 0 mm 4 m/s 708 mmHg 51%
    17:00 +17°C° 0 mm 3 m/s 708 mmHg 57%
    18:00 +14°C° 0 mm 3 m/s 708 mmHg 63%
    19:00 +13°C° 0 mm 2 m/s 708 mmHg 68%
    20:00 +12°C° 0 mm 2 m/s 708 mmHg 70%
    21:00 +12°C° 0 mm 2 m/s 708 mmHg 72%
    22:00 +12°C° 0 mm 2 m/s 708 mmHg 73%
    23:00 +12°C° 0.1 mm 2 m/s 707 mmHg 75%

    26 Mai, Dimanche

    Heure Température Précipitation Vent Pression Humidité
    00:00 +12°C° 0.1 mm 2 m/s 707 mmHg 77%
    01:00 +11°C° 0.1 mm 3 m/s 707 mmHg 79%
    02:00 +11°C° 0.4 mm 3 m/s 706 mmHg 84%
    03:00 +11°C° 0.4 mm 3 m/s 706 mmHg 88%
    04:00 +10°C° 0.4 mm 4 m/s 706 mmHg 92%
    05:00 +10°C° 0.2 mm 4 m/s 706 mmHg 92%
    06:00 +9°C° 0.2 mm 5 m/s 706 mmHg 92%
    07:00 +8°C° 0.2 mm 6 m/s 707 mmHg 92%
    08:00 +9°C° 0.1 mm 5 m/s 707 mmHg 86%
    09:00 +9°C° 0.1 mm 5 m/s 707 mmHg 80%
    10:00 +9°C° 0.1 mm 5 m/s 708 mmHg 74%
    11:00 +10°C° 0 mm 6 m/s 707 mmHg 67%
    12:00 +10°C° 0 mm 6 m/s 707 mmHg 60%
    13:00 +11°C° 0 mm 6 m/s 707 mmHg 53%
    14:00 +10°C° 0 mm 6 m/s 707 mmHg 56%
    15:00 +10°C° 0 mm 6 m/s 706 mmHg 58%
    16:00 +9°C° 0 mm 5 m/s 706 mmHg 61%
    17:00 +8°C° 0 mm 5 m/s 707 mmHg 65%
    18:00 +7°C° 0 mm 5 m/s 707 mmHg 69%
    19:00 +6°C° 0 mm 5 m/s 707 mmHg 73%
    20:00 +6°C° 0 mm 5 m/s 707 mmHg 71%
    21:00 +5°C° 0 mm 6 m/s 707 mmHg 69%
    22:00 +5°C° 0 mm 6 m/s 707 mmHg 68%
    23:00 +6°C° 0 mm 7 m/s 707 mmHg 68%

    27 Mai, Lundi

    Heure Température Précipitation Vent Pression Humidité
    00:00 +6°C° 0 mm 7 m/s 706 mmHg 68%
    01:00 +6°C° 0 mm 8 m/s 706 mmHg 68%
    02:00 +6°C° 0 mm 8 m/s 706 mmHg 70%
    03:00 +6°C° 0 mm 7 m/s 706 mmHg 71%
    04:00 +6°C° 0 mm 7 m/s 706 mmHg 72%
    05:00 +5°C° 0 mm 6 m/s 706 mmHg 73%
    06:00 +5°C° 0 mm 6 m/s 707 mmHg 74%
    07:00 +6°C° 0 mm 5 m/s 707 mmHg 75%
    08:00 +7°C° 0 mm 6 m/s 707 mmHg 69%
    09:00 +8°C° 0 mm 7 m/s 708 mmHg 63%
    10:00 +9°C° 0 mm 7 m/s 708 mmHg 57%
    11:00 +9°C° 0 mm 7 m/s 708 mmHg 56%
    12:00 +9°C° 0 mm 7 m/s 707 mmHg 55%
    13:00 +10°C° 0 mm 7 m/s 707 mmHg 53%
    14:00 +9°C° 0 mm 6 m/s 707 mmHg 57%
    15:00 +8°C° 0 mm 6 m/s 707 mmHg 61%
    16:00 +8°C° 0 mm 6 m/s 707 mmHg 65%
    17:00 +8°C° 0 mm 6 m/s 707 mmHg 67%
    18:00 +7°C° 0 mm 5 m/s 708 mmHg 69%
    19:00 +7°C° 0 mm 5 m/s 708 mmHg 71%
    20:00 +7°C° 0 mm 5 m/s 708 mmHg 74%
    21:00 +7°C° 0 mm 4 m/s 708 mmHg 76%
    22:00 +6°C° 0 mm 4 m/s 708 mmHg 79%
    23:00 +6°C° 0 mm 4 m/s 708 mmHg 80%

    28 Mai, Mardi

    Heure Température Précipitation Vent Pression Humidité
    00:00 +6°C° 0 mm 4 m/s 708 mmHg 82%
    01:00 +6°C° 0 mm 4 m/s 708 mmHg 84%
    02:00 +6°C° 0 mm 4 m/s 707 mmHg 86%
    03:00 +5°C° 0 mm 4 m/s 707 mmHg 87%
    04:00 +5°C° 0 mm 4 m/s 707 mmHg 89%
    05:00 +5°C° 0 mm 4 m/s 707 mmHg 89%
    06:00 +6°C° 0 mm 4 m/s 707 mmHg 88%
    07:00 +6°C° 0 mm 5 m/s 707 mmHg 87%
    08:00 +7°C° 0 mm 6 m/s 707 mmHg 80%
    09:00 +8°C° 0 mm 7 m/s 707 mmHg 73%
    10:00 +10°C° 0 mm 8 m/s 707 mmHg 65%
    11:00 +10°C° 0 mm 8 m/s 706 mmHg 65%
    12:00 +10°C° 0 mm 8 m/s 705 mmHg 65%
    13:00 +10°C° 0 mm 8 m/s 705 mmHg 65%
    14:00 +10°C° 0 mm 8 m/s 704 mmHg 66%
    15:00 +10°C° 0 mm 8 m/s 704 mmHg 66%
    16:00 +10°C° 0 mm 8 m/s 704 mmHg 67%
    17:00 +10°C° 0 mm 8 m/s 704 mmHg 71%
    18:00 +9°C° 0 mm 7 m/s 704 mmHg 74%
    19:00 +9°C° 0 mm 7 m/s 704 mmHg 77%
    20:00 +9°C° 0.1 mm 7 m/s 704 mmHg 78%
    21:00 +9°C° 0.1 mm 7 m/s 704 mmHg 79%
    22:00 +9°C° 0.1 mm 7 m/s 704 mmHg 80%
    23:00 +9°C° 0 mm 8 m/s 703 mmHg 79%
    Voir plus